Miscellaneous Local Product
Issued by NWS North Platte, NE

Home | Current Version | Previous Version | Text Only | Print | Product List | Glossary On
Versions: 1 2 3 4 5 6 7 8 9 10 11 12 13 14 15 16 17 18 19 20 21 22 23 24 25 26 27 28 29 30 31 32 33 34 35 36 37 38 39 40 41 42 43 44 45 46 47 48 49 50
000
AXUS43 KLBF 230310
MISLBF


WESTERN AND NORTH CENTRAL NEBRASKA HOURLY WEATHER ROUNDUP
NATIONAL WEATHER SERVICE NORTH PLATTE NE
1000 PM CDT TUE JUL 22 2014

***STATIONS NOT REPORTING VARIABLES SUCH AS SKY/WEATHER OR
PRESSURE ARE PROVIDED BY THE NEBRASKA DEPARTMENT OF
ROADS...RAWS...AND APRS NETWORKS...AND ARE NOT UNDER
NATIONAL WEATHER SERVICE QUALITY CONTROL***

...OBSERVATIONS IN AND NEAR THE EASTERN PANHANDLE OF NEBRASKA...

CITY           SKY/WX    TMP DP  RH WIND       PRES   REMARKS
PINE RIDGE     PTCLDY    76  63  64 NE20G26   30.26R
CHADRON        CLEAR     82  60  47 E22G29    30.12F THUNDER
ALLIANCE       CLEAR     79  56  45 SE12      30.22R
SIDNEY         MOCLDY    79  58  48 SE9       30.26S
WHITECLAY        N/A     78  60  53 NE12        N/A
RUSHVILLE        N/A     80  57  45 E18         N/A
GORDON           N/A     80  62  52 E14         N/A
CRESCENT LAKE    N/A     78  55  45 E8          N/A
LISCO            N/A     85  54  33 E14         N/A
BIG SPRINGS      N/A     81  64  56 CALM        N/A
$$

...OBSERVATIONS IN NORTH CENTRAL NEBRASKA...

CITY           SKY/WX    TMP DP  RH WIND       PRES   REMARKS
VALENTINE      CLEAR     75  63  66 NE7       30.25R
THEDFORD       CLEAR     74  61  63 E8        30.24S
AINSWORTH      CLEAR     69  65  85 E3        30.24R
O`NEILL        CLEAR     72  63  74 E5        30.22R
ORD            CLEAR     72  66  81 NE5       30.19R
BROKEN BOW     CLEAR     73  64  73 NE8       30.22R
BROWNLEE         N/A     75  62  63 E8          N/A
SPRINGVIEW       N/A     74  61  63 CALM        N/A
DUNNING          N/A     74  65  73 NE8         N/A
ROSE             N/A     75  70  85 NE5         N/A
NEWPORT          N/A     71  64  80 E7          N/A
SARGENT          N/A     74  65  73 CALM        N/A
COMSTOCK         N/A     77  72  83 E5          N/A
CHAMBERS         N/A     72  64  74 CALM        N/A
$$

...OBSERVATIONS IN SOUTHWEST NEBRASKA AND FAR NORTHEAST COLORADO...

CITY           SKY/WX    TMP DP  RH WIND       PRES   REMARKS
WRAY             N/A     83  62  48 E10       30.22R
HOLYOKE        FAIR      77  64  65 E7        30.23R
IMPERIAL       CLEAR     78  62  57 E9        30.21R
OGALLALA       PTCLDY    76  62  61 E8        30.22R
NORTH PLATTE   CLEAR     77  64  64 E10       30.21R
MCCOOK         CLEAR     79  62  56 E10       30.18R
LEXINGTON      CLEAR     75  67  75 E7        30.19R
PAXTON           N/A     81  65  57 CALM        N/A
SUTHERLAND       N/A     79  71  75 E6          N/A
BRADY            N/A     76  65  68 CALM        N/A
GOTHENBURG       N/A     79  63  58 E6          N/A
CALLAWAY         N/A     77  68  73 E8          N/A
$$

...NORTH PLATTE AREA...

CITY           SKY/WX    TMP DP  RH WIND       PRES   REMARKS
AIRPORT        CLEAR     77  64  64 E10       30.21R
$$

...SOME WEATHER OBSERVATIONS FROM AROUND THE REGION...

CITY           SKY/WX    TMP DP  RH WIND       PRES   REMARKS
DENVER         PTCLDY    78  51  38 SE9       30.29R
LARAMIE        CLEAR     70  50  49 SE10      30.43R
CHEYENNE       PTCLDY    76  54  46 S8        30.36S
SCOTTSBLUFF    PTCLDY    82  58  43 SE16      30.19S
RAPID CITY     CLOUDY    73  62  68 NE6       30.23R
PIERRE         CLOUDY    74  61  63 E3        30.23R
WINNER         FAIR      74  58  57 E8        30.23R
SIOUX FALLS    PTCLDY    68  59  73 N6        30.21R
OMAHA          MOCLDY    76  68  76 N7        30.12R
GRAND ISLAND   CLEAR     74  69  85 NE8       30.17R
KANSAS CITY    CLEAR     86  78  77 NE3       30.05R HX  98
WICHITA        CLEAR     85  72  65 S9        30.07R HX  91
HAYS           CLEAR     82  64  54 SE7       30.11R
LIBERAL        CLEAR     79  63  57 S7        30.18R
GOODLAND       CLEAR     80  67  64 E13       30.21R
$$



USA.gov is the U.S. government's official web portal to all federal, state and local government web resources and services.